"startDT [UTC]","vpos","CH4 [ppm]","stdev(CH4) [ppm]","CO2 [ppm]","stdev(CO2) [ppm]","H2O_reported [%]","stdev(H2O_reported)","CavityPressure [torr]","CavityTemp [C]","OutletValve","CH4_dry [ppm]","CO2_dry [ppm]","DasTemp [C]","EtalonTemp [C]","WarmBoxTemp [C]","MPVPosition","T_ECpre [C]","T_EC1 [C]","T_EC2 [C]","p_inlet [hPa]","p_in [hPa]","p_out [hPa]","T_inlet [C]","RH_inlet [%]","dwpt_inlet [C]","T_vent [C]","RH_vent [%]","dwpt_vent [C]","flow_vent [l min-1]","flow_inlet [l min-1]","dwpt_sample [C]","T_room [C]"
2015-06-01 00:00:00,0.0,1.90031,0.00027,401.019,0.034,0.6698,0.0018,140.000,45.000,34177.72136,1.91309,404.317,32.750,45.068,45.000,0.00,0.09,-272.72,-272.78,-6,982,-5,23.5,17.6,-2.5,23.2,18.1,-2.4,5.73,1.91,-4.1,27.3
2015-06-01 00:01:00,0.0,1.90013,0.00034,400.990,0.036,0.6684,0.0024,139.999,45.000,34179.49327,1.91292,404.282,32.750,45.068,45.000,0.00,0.10,-272.72,-272.77,-6,983,-5,23.4,17.6,-2.6,23.1,18.1,-2.4,5.73,1.91,-4.1,27.3
2015-06-01 00:02:00,0.0,1.89996,0.00023,401.001,0.034,0.6658,0.0014,139.999,45.000,34182.11863,1.91267,404.280,32.749,45.068,45.000,0.00,0.09,-272.72,-272.78,-6,982,-5,23.4,17.5,-2.6,23.2,18.0,-2.4,5.73,1.91,-4.1,27.3
2015-06-01 00:03:00,0.0,1.90012,0.00029,400.998,0.020,0.6654,0.0023,139.998,45.000,34183.63990,1.91281,404.273,32.740,45.068,45.000,0.00,0.09,-272.72,-272.78,-6,983,-5,23.5,17.4,-2.7,23.2,18.0,-2.5,5.73,1.92,-4.1,27.4
2015-06-01 00:04:00,0.0,1.90015,0.00026,401.030,0.028,0.6579,0.0016,140.004,45.000,34187.97338,1.91274,404.267,32.747,45.068,45.000,0.00,0.09,-272.72,-272.78,-6,982,-5,23.5,17.3,-2.8,23.2,17.8,-2.6,5.73,1.93,-4.1,27.4
2015-06-01 00:05:00,0.0,1.89998,0.00045,401.037,0.040,0.6556,0.0020,140.000,45.000,34186.46685,1.91247,404.264,32.742,45.068,45.000,0.00,0.09,-272.72,-272.77,-6,982,-5,23.5,17.2,-2.9,23.2,17.7,-2.7,5.73,1.93,-4.1,27.3
2015-06-01 00:06:00,0.0,1.90016,0.00032,401.043,0.037,0.6590,0.0015,139.996,45.000,34182.58221,1.91272,404.288,32.749,45.068,45.000,0.00,0.09,-272.72,-272.78,-6,983,-5,23.5,17.3,-2.8,23.2,17.8,-2.6,5.73,1.95,-4.1,27.3
2015-06-01 00:07:00,0.0,1.90024,0.00041,401.020,0.031,0.6591,0.0020,140.000,45.000,34183.13890,1.91277,404.265,32.749,45.068,45.000,0.00,0.09,-272.72,-272.78,-6,983,-5,23.5,17.3,-2.8,23.2,17.8,-2.6,5.73,1.96,-4.1,27.3
2015-06-01 00:08:00,0.0,1.90018,0.00039,401.045,0.037,0.6564,0.0016,139.996,45.000,34182.43652,1.91278,404.274,32.749,45.068,45.000,0.00,0.10,-272.71,-272.78,-6,983,-5,23.5,17.2,-2.8,23.2,17.7,-2.6,5.73,1.96,-4.1,27.4
2015-06-01 00:09:00,0.0,1.90033,0.00028,401.008,0.026,0.6637,0.0043,139.994,45.000,34179.31117,1.91297,404.275,32.749,45.068,45.000,0.00,0.09,-272.72,-272.79,-6,982,-5,23.4,17.4,-2.7,23.2,17.8,-2.6,5.73,1.96,-4.1,27.3
2015-06-01 00:10:00,0.0,1.89995,0.00030,400.965,0.031,0.6721,0.0024,140.002,45.000,34178.37597,1.91279,404.274,32.750,45.068,45.000,0.00,0.09,-272.72,-272.79,-6,983,-5,23.5,17.7,-2.5,23.2,18.2,-2.3,5.73,1.95,-4.1,27.4
2015-06-01 00:11:00,0.0,1.90025,0.00034,400.972,0.027,0.6727,0.0020,139.999,45.000,34175.29794,1.91307,404.287,32.751,45.068,45.000,0.00,0.10,-272.72,-272.78,-6,982,-5,23.5,17.7,-2.5,23.2,18.2,-2.3,5.73,1.95,-4.1,27.4
2015-06-01 00:12:00,0.0,1.89979,0.00046,400.964,0.030,0.6739,0.0014,140.000,45.000,34179.78032,1.91267,404.283,32.750,45.068,45.000,0.00,0.09,-272.72,-272.79,-6,982,-5,23.5,17.7,-2.4,23.2,18.2,-2.3,5.73,1.93,-4.1,27.4
2015-06-01 00:13:00,0.0,1.89993,0.00033,400.972,0.036,0.6770,0.0027,140.001,45.000,34178.65982,1.91287,404.303,32.751,45.068,45.000,0.00,0.09,-272.72,-272.79,-6,982,-5,23.5,17.8,-2.4,23.2,18.3,-2.2,5.73,1.92,-4.1,27.3
2015-06-01 00:14:00,0.0,1.89982,0.00028,400.956,0.039,0.6822,0.0022,140.001,45.000,34179.41620,1.91284,404.316,32.751,45.068,45.000,0.00,0.10,-272.72,-272.78,-6,982,-5,23.5,17.9,-2.3,23.2,18.4,-2.1,5.73,1.91,-4.1,27.3
2015-06-01 00:15:00,0.0,1.89957,0.00037,400.909,0.025,0.6840,0.0023,140.002,45.000,34182.85789,1.91264,404.282,32.750,45.068,45.000,0.00,0.09,-272.72,-272.78,-6,983,-5,23.5,18.0,-2.2,23.2,18.5,-2.1,5.73,1.91,-4.1,27.3
2015-06-01 00:16:00,0.0,1.89965,0.00036,400.889,0.028,0.6876,0.0029,139.999,45.000,34183.59398,1.91278,404.274,32.749,45.068,45.000,0.00,0.09,-272.73,-272.79,-6,982,-5,23.5,18.1,-2.2,23.2,18.6,-2.0,5.73,1.91,-4.1,27.3
2015-06-01 00:17:00,0.0,1.89924,0.00039,400.864,0.027,0.6885,0.0024,140.000,45.000,34187.62179,1.91241,404.257,32.750,45.068,45.000,0.00,0.09,-272.72,-272.79,-6,983,-5,23.5,18.1,-2.2,23.2,18.6,-2.0,5.73,1.92,-4.1,27.3
2015-06-01 00:18:00,0.0,1.89917,0.00039,400.863,0.042,0.6898,0.0025,139.998,45.000,34186.18428,1.91236,404.261,32.752,45.068,45.000,0.00,0.09,-272.72,-272.78,-6,982,-5,23.5,18.1,-2.1,23.2,18.6,-2.0,5.73,1.93,-4.1,27.3
2015-06-01 00:19:00,0.0,1.89914,0.00030,400.887,0.037,0.6887,0.0014,140.004,45.000,34186.15483,1.91226,404.277,32.755,45.068,45.000,0.00,0.09,-272.72,-272.78,-6,983,-5,23.5,18.1,-2.2,23.2,18.6,-2.0,5.73,1.94,-4.1,27.3
2015-06-01 00:20:00,0.0,1.89942,0.00040,400.904,0.028,0.6854,0.0023,139.999,45.000,34185.99877,1.91254,404.280,32.751,45.068,45.000,0.00,0.09,-272.72,-272.78,-6,982,-5,23.5,18.0,-2.2,23.2,18.5,-2.0,5.73,1.95,-4.1,27.3
2015-06-01 00:21:00,0.0,1.89923,0.00035,400.925,0.033,0.6781,0.0020,140.001,45.000,34186.90215,1.91216,404.267,32.755,45.068,45.000,0.00,0.10,-272.71,-272.78,-6,982,-5,23.5,17.8,-2.4,23.2,18.3,-2.2,5.73,1.96,-4.1,27.4
2015-06-01 00:22:00,0.0,1.89947,0.00043,400.962,0.022,0.6755,0.0024,140.001,45.000,34189.93566,1.91238,404.286,32.764,45.068,45.000,0.00,0.10,-272.72,-272.78,-6,983,-5,23.5,17.7,-2.4,23.2,18.3,-2.2,5.73,1.96,-4.1,27.4
2015-06-01 00:23:00,0.0,1.89946,0.00026,400.954,0.040,0.6773,0.0026,139.999,45.000,34187.67746,1.91239,404.289,32.767,45.068,45.000,0.00,0.09,-272.72,-272.79,-6,982,-5,23.5,17.8,-2.4,23.2,18.2,-2.3,5.73,1.96,-4.1,27.4
2015-06-01 00:24:00,0.0,1.89936,0.00026,400.940,0.023,0.6825,0.0026,140.001,45.000,34189.10527,1.91237,404.300,32.798,45.068,45.000,0.00,0.09,-272.71,-272.78,-6,983,-5,23.5,17.9,-2.2,23.2,18.4,-2.1,5.73,1.95,-4.1,27.4
2015-06-01 00:25:00,0.0,1.89942,0.00033,400.931,0.023,0.6828,0.0020,139.999,45.001,34187.27650,1.91245,404.295,32.811,45.068,45.000,0.00,0.10,-272.71,-272.78,-6,982,-5,23.5,17.9,-2.2,23.2,18.5,-2.1,5.73,1.94,-4.1,27.4
2015-06-01 00:26:00,0.0,1.89944,0.00040,400.901,0.028,0.6829,0.0018,139.995,45.001,34186.92369,1.91249,404.265,32.813,45.068,45.000,0.00,0.09,-272.72,-272.79,-6,983,-5,23.5,17.9,-2.3,23.2,18.4,-2.1,5.73,1.92,-4.1,27.4
2015-06-01 00:27:00,0.0,1.89938,0.00034,400.897,0.029,0.6839,0.0029,139.999,45.001,34186.12350,1.91242,404.265,32.813,45.068,45.000,0.00,0.09,-272.73,-272.78,-6,983,-5,23.5,17.9,-2.2,23.2,18.4,-2.1,5.73,1.92,-4.1,27.4
2015-06-01 00:28:00,0.0,1.89924,0.00034,400.888,0.031,0.6827,0.0026,140.000,45.001,34188.12469,1.91234,404.250,32.813,45.068,45.000,0.00,0.10,-272.72,-272.77,-6,982,-5,23.5,17.9,-2.3,23.2,18.5,-2.1,5.73,1.91,-4.0,27.4
2015-06-01 00:29:00,0.0,1.89910,0.00024,400.866,0.037,0.6938,0.0053,139.999,45.000,34188.10367,1.91231,404.281,32.813,45.068,45.000,0.00,0.10,-272.72,-272.78,-6,983,-5,23.5,18.2,-2.0,23.2,18.6,-2.0,5.73,1.91,-4.1,27.4
2015-06-01 00:30:00,0.0,1.89903,0.00037,400.811,0.033,0.7026,0.0017,140.002,45.000,34189.49764,1.91243,404.273,32.814,45.068,45.000,0.00,0.09,-272.72,-272.79,-6,982,-5,23.5,18.4,-1.9,23.2,18.9,-1.7,5.73,1.92,-4.0,27.4
2015-06-01 00:31:00,0.0,1.89906,0.00041,400.855,0.035,0.6995,0.0015,139.998,45.000,34188.14418,1.91239,404.302,32.819,45.068,45.000,0.00,0.10,-272.72,-272.77,-6,983,-5,23.5,18.3,-1.9,23.2,18.9,-1.8,5.73,1.92,-4.0,27.4
2015-06-01 00:32:00,0.0,1.89927,0.00035,400.846,0.042,0.7014,0.0018,140.004,45.000,34192.39640,1.91270,404.300,32.819,45.068,45.000,0.00,0.09,-272.72,-272.78,-6,982,-5,23.5,18.4,-1.9,23.2,18.9,-1.7,5.73,1.94,-4.1,27.4
2015-06-01 00:33:00,0.0,1.89953,0.00033,400.894,0.038,0.6981,0.0019,139.996,45.000,34189.58731,1.91284,404.334,32.835,45.068,45.000,0.00,0.09,-272.72,-272.78,-6,982,-5,23.5,18.3,-2.0,23.2,18.9,-1.8,5.73,1.95,-4.0,27.4
2015-06-01 00:34:00,0.0,1.89922,0.00046,400.901,0.065,0.6982,0.0025,139.999,45.000,34190.54954,1.91256,404.345,32.849,45.068,45.000,0.00,0.09,-272.72,-272.78,-6,983,-5,23.5,18.2,-2.0,23.2,18.8,-1.8,5.73,1.96,-4.0,27.4
2015-06-01 00:35:00,0.0,1.89917,0.00038,400.851,0.029,0.6950,0.0030,140.001,45.000,34191.72783,1.91249,404.274,32.857,45.068,45.000,0.00,0.09,-272.72,-272.77,-6,982,-5,23.5,18.1,-2.1,23.2,18.7,-1.9,5.73,1.96,-4.0,27.4
2015-06-01 00:36:00,0.0,1.89924,0.00029,400.847,0.044,0.6961,0.0035,139.999,45.000,34188.93495,1.91252,404.277,32.855,45.068,45.000,0.00,0.10,-272.72,-272.78,-6,983,-5,23.5,18.2,-2.0,23.2,18.7,-1.9,5.73,1.96,-4.0,27.3
2015-06-01 00:37:00,0.0,1.89939,0.00041,400.827,0.032,0.7005,0.0023,139.998,45.000,34190.45286,1.91278,404.279,32.851,45.068,45.000,0.00,0.09,-272.72,-272.79,-6,982,-5,23.5,18.3,-1.9,23.3,18.9,-1.7,5.73,1.95,-4.0,27.4
2015-06-01 00:38:00,0.0,1.89905,0.00039,400.797,0.038,0.7016,0.0019,140.003,45.000,34191.85812,1.91251,404.254,32.854,45.068,45.000,0.00,0.10,-272.72,-272.78,-6,983,-5,23.5,18.4,-1.9,23.2,18.9,-1.7,5.73,1.94,-4.0,27.4
2015-06-01 00:39:00,0.0,1.89915,0.00046,400.839,0.040,0.7010,0.0013,140.002,45.000,34190.92357,1.91248,404.292,32.826,45.068,45.000,0.00,0.10,-272.72,-272.78,-6,982,-5,23.6,18.4,-1.9,23.3,18.9,-1.7,5.73,1.93,-4.0,27.4
2015-06-01 00:40:00,0.0,1.89932,0.00042,400.832,0.043,0.7052,0.0032,140.001,45.000,34193.35015,1.91279,404.305,32.838,45.068,45.000,0.00,0.09,-272.72,-272.79,-6,982,-5,23.5,18.5,-1.8,23.3,19.0,-1.7,5.73,1.92,-4.0,27.4
2015-06-01 00:41:00,0.0,1.89951,0.00034,400.792,0.027,0.7098,0.0016,140.002,45.000,34196.60722,1.91306,404.292,32.840,45.068,45.000,0.00,0.10,-272.72,-272.78,-6,983,-5,23.6,18.6,-1.7,23.3,19.2,-1.5,5.73,1.91,-4.0,27.4
2015-06-01 00:42:00,0.0,1.89933,0.00037,400.805,0.040,0.7113,0.0018,139.999,45.000,34196.42258,1.91291,404.308,32.824,45.068,45.000,0.00,0.09,-272.72,-272.77,-6,982,-5,23.6,18.6,-1.7,23.3,19.2,-1.5,5.73,1.91,-4.0,27.3
2015-06-01 00:43:00,0.0,1.89917,0.00038,400.792,0.034,0.7110,0.0027,139.997,45.000,34195.18520,1.91279,404.299,32.825,45.068,45.000,0.00,0.09,-272.73,-272.78,-6,983,-5,23.6,18.6,-1.7,23.3,19.2,-1.5,5.73,1.91,-4.0,27.4
2015-06-01 00:44:00,0.0,1.89949,0.00025,400.818,0.020,0.7099,0.0017,140.003,45.000,34196.79288,1.91304,404.314,32.814,45.068,45.000,0.00,0.09,-272.72,-272.78,-6,982,-5,23.6,18.6,-1.7,23.3,19.1,-1.5,5.73,1.93,-4.0,27.4
2015-06-01 00:45:00,0.0,1.89939,0.00048,400.758,0.033,0.7156,0.0031,140.002,45.000,34197.15118,1.91309,404.284,32.827,45.068,45.000,0.00,0.10,-272.72,-272.78,-6,983,-5,23.6,18.7,-1.6,23.3,19.3,-1.4,5.73,1.93,-4.0,27.4
2015-06-01 00:46:00,0.0,1.89960,0.00035,400.806,0.048,0.7105,0.0021,140.000,45.000,34195.09871,1.91315,404.307,32.849,45.068,45.000,0.00,0.09,-272.72,-272.78,-6,983,-5,23.6,18.5,-1.7,23.3,19.2,-1.5,5.73,1.94,-4.0,27.4
2015-06-01 00:47:00,0.0,1.90031,0.00039,400.895,0.027,0.7082,0.0031,139.999,45.000,34197.30267,1.91381,404.385,32.853,45.068,45.000,0.00,0.09,-272.72,-272.78,-6,982,-5,23.6,18.5,-1.8,23.3,19.1,-1.6,5.73,1.96,-4.0,27.4
2015-06-01 00:48:00,0.0,1.90065,0.00032,400.935,0.035,0.6969,0.0036,139.995,45.000,34193.42227,1.91397,404.371,32.844,45.068,45.000,0.00,0.09,-272.71,-272.78,-6,983,-5,23.6,18.2,-2.0,23.3,18.8,-1.8,5.73,1.96,-4.0,27.5
2015-06-01 00:49:00,0.0,1.90112,0.00044,401.004,0.034,0.6891,0.0030,140.001,45.000,34191.93737,1.91426,404.402,32.851,45.068,45.000,0.00,0.09,-272.72,-272.78,-6,982,-5,23.6,18.0,-2.1,23.3,18.6,-1.9,5.73,1.96,-4.0,27.5
2015-06-01 00:50:00,0.0,1.90159,0.00035,401.069,0.039,0.6796,0.0027,139.998,45.000,34190.42701,1.91455,404.417,32.849,45.068,45.000,0.00,0.09,-272.72,-272.79,-6,982,-5,23.6,17.7,-2.4,23.3,18.3,-2.1,5.73,1.95,-4.0,27.5
2015-06-01 00:51:00,0.0,1.90164,0.00041,401.094,0.040,0.6785,0.0019,139.997,45.000,34190.62127,1.91464,404.432,32.869,45.068,45.000,0.00,0.10,-272.72,-272.78,-6,983,-5,23.6,17.6,-2.4,23.3,18.2,-2.2,5.73,1.94,-4.0,27.5
2015-06-01 00:52:00,0.0,1.90223,0.00043,401.132,0.033,0.6772,0.0049,139.993,45.000,34188.58131,1.91512,404.470,32.859,45.068,45.000,0.00,0.10,-272.72,-272.78,-6,983,-5,23.6,17.6,-2.4,23.3,18.2,-2.2,5.73,1.92,-4.0,27.4
2015-06-01 00:53:00,0.0,1.90204,0.00050,401.177,0.021,0.6736,0.0026,139.999,45.000,34190.66588,1.91497,404.494,32.870,45.068,45.000,0.00,0.09,-272.72,-272.79,-6,983,-5,23.6,17.5,-2.5,23.3,18.1,-2.3,5.73,1.91,-4.0,27.4
2015-06-01 00:54:00,0.0,1.90206,0.00045,401.153,0.033,0.6667,0.0053,139.997,45.000,34194.58194,1.91479,404.440,32.875,45.068,45.000,0.00,0.09,-272.72,-272.78,-6,982,-5,23.6,17.3,-2.7,23.3,17.9,-2.4,5.73,1.91,-4.0,27.4
2015-06-01 00:55:00,0.0,1.90250,0.00034,401.233,0.030,0.6528,0.0017,140.001,45.000,34193.45846,1.91494,404.448,32.876,45.068,45.000,0.00,0.10,-272.72,-272.77,-6,983,-5,23.6,16.9,-3.0,23.3,17.5,-2.7,5.73,1.91,-4.0,27.5
2015-06-01 00:56:00,0.0,1.90243,0.00038,401.194,0.036,0.6555,0.0021,139.997,45.000,34194.85106,1.91491,404.424,32.875,45.068,45.000,0.00,0.10,-272.72,-272.78,-6,983,-5,23.6,17.0,-2.9,23.3,17.5,-2.7,5.73,1.91,-4.0,27.4
2015-06-01 00:57:00,0.0,1.90246,0.00032,401.170,0.029,0.6648,0.0038,139.996,45.000,34193.12466,1.91518,404.442,32.879,45.068,45.000,0.00,0.09,-272.73,-272.78,-6,982,-5,23.6,17.3,-2.7,23.3,17.8,-2.5,5.73,1.93,-4.0,27.4
2015-06-01 00:58:00,0.0,1.90256,0.00032,401.133,0.026,0.6705,0.0021,140.001,45.000,34194.81537,1.91538,404.434,32.883,45.068,45.000,0.00,0.09,-272.72,-272.78,-6,983,-5,23.6,17.5,-2.5,23.3,18.0,-2.4,5.73,1.94,-4.0,27.4
2015-06-01 00:59:00,0.0,1.90267,0.00029,401.143,0.031,0.6734,0.0021,139.999,45.000,34190.87829,1.91556,404.459,32.884,45.068,45.000,0.00,0.09,-272.72,-272.78,-6,982,-5,23.6,17.5,-2.5,23.3,18.0,-2.3,5.73,1.95,-4.0,27.4
2015-06-01 01:00:00,0.0,1.90224,0.00029,401.088,0.045,0.6820,0.0037,139.995,45.000,34194.05144,1.91531,404.447,32.884,45.068,45.000,0.00,0.09,-272.72,-272.78,-6,983,-5,23.6,17.7,-2.3,23.3,18.2,-2.2,5.73,1.96,-4.0,27.5
2015-06-01 01:01:00,0.0,1.90233,0.00045,401.163,0.067,0.6714,0.0083,139.999,45.000,34192.99957,1.91512,404.470,32.889,45.068,45.000,0.00,0.09,-272.72,-272.78,-6,983,-5,23.6,17.4,-2.6,23.3,18.1,-2.3,5.73,1.96,-3.9,27.5
2015-06-01 01:02:00,0.0,1.90292,0.00039,401.279,0.045,0.6497,0.0029,140.002,45.000,34195.88450,1.91532,404.478,32.895,45.068,45.000,0.00,0.09,-272.71,-272.78,-6,982,-5,23.6,16.8,-3.0,23.3,17.4,-2.8,5.73,1.95,-3.9,27.5
2015-06-01 01:03:00,0.0,1.90317,0.00024,401.286,0.065,0.6488,0.0018,139.998,45.000,34192.08643,1.91557,404.484,32.920,45.068,45.000,0.00,0.09,-272.72,-272.78,-6,983,-5,23.7,16.8,-3.0,23.3,17.3,-2.8,5.73,1.94,-4.0,27.5
2015-06-01 01:04:00,0.0,1.90311,0.00030,401.257,0.034,0.6483,0.0029,139.998,45.000,34189.47959,1.91552,404.448,32.924,45.068,45.000,0.00,0.09,-272.72,-272.78,-6,983,-5,23.7,16.8,-3.0,23.3,17.3,-2.9,5.73,1.92,-3.9,27.5
2015-06-01 01:05:00,0.0,1.90285,0.00036,401.252,0.024,0.6593,0.0035,139.999,45.000,34188.48650,1.91542,404.498,32.937,45.068,45.000,0.00,0.10,-272.72,-272.78,-6,982,-5,23.7,17.1,-2.8,23.3,17.6,-2.7,5.73,1.91,-3.9,27.5
2015-06-01 01:06:00,0.0,1.90275,0.00050,401.205,0.040,0.6654,0.0019,140.002,45.000,34189.35293,1.91548,404.484,32.938,45.068,45.000,0.00,0.10,-272.72,-272.78,-6,983,-5,23.6,17.2,-2.7,23.3,17.7,-2.5,5.73,1.91,-3.9,27.5
2015-06-01 01:07:00,0.0,1.90232,0.00032,401.142,0.028,0.6729,0.0037,140.001,45.000,34194.09741,1.91516,404.456,32.938,45.068,45.000,0.00,0.09,-272.72,-272.78,-6,983,-5,23.7,17.5,-2.5,23.3,17.9,-2.4,5.73,1.91,-3.9,27.5
2015-06-01 01:08:00,0.0,1.90209,0.00037,401.067,0.044,0.6825,0.0053,139.999,45.000,34196.17794,1.91518,404.429,32.938,45.068,45.000,0.00,0.10,-272.72,-272.78,-7,983,-5,23.7,17.7,-2.3,23.3,18.2,-2.2,5.73,1.91,-3.9,27.5
2015-06-01 01:09:00,0.0,1.90188,0.00027,401.013,0.025,0.6912,0.0022,140.002,45.000,34199.74902,1.91508,404.418,32.946,45.068,45.000,0.00,0.10,-272.72,-272.77,-6,983,-5,23.7,18.0,-2.1,23.4,18.5,-1.9,5.73,1.93,-3.9,27.5
2015-06-01 01:10:00,0.0,1.90211,0.00046,401.044,0.029,0.6884,0.0025,140.000,45.000,34196.34138,1.91530,404.437,32.950,45.068,45.000,0.00,0.09,-272.73,-272.78,-6,983,-5,23.7,17.9,-2.2,23.4,18.4,-2.0,5.73,1.94,-3.9,27.5
2015-06-01 01:11:00,0.0,1.90243,0.00057,401.084,0.022,0.6834,0.0011,140.005,45.000,34198.19112,1.91545,404.452,32.946,45.068,45.000,0.00,0.09,-272.72,-272.78,-6,983,-5,23.7,17.7,-2.3,23.4,18.3,-2.1,5.73,1.95,-3.9,27.5
2015-06-01 01:12:00,0.0,1.90251,0.00018,401.114,0.032,0.6760,0.0022,139.998,45.000,34195.13616,1.91544,404.443,32.955,45.068,45.000,0.00,0.10,-272.72,-272.77,-6,982,-5,23.7,17.5,-2.4,23.4,18.1,-2.2,5.73,1.96,-3.9,27.5
2015-06-01 01:13:00,0.0,1.90237,0.00043,401.135,0.040,0.6738,0.0019,139.998,45.000,34194.85442,1.91528,404.456,32.961,45.068,45.000,0.00,0.09,-272.72,-272.79,-7,983,-5,23.7,17.5,-2.5,23.4,18.0,-2.3,5.73,1.96,-3.9,27.5
2015-06-01 01:14:00,0.0,1.90269,0.00034,401.110,0.027,0.6744,0.0019,139.998,45.000,34195.25247,1.91553,404.434,32.984,45.068,45.000,0.00,0.09,-272.72,-272.79,-6,983,-5,23.7,17.5,-2.4,23.4,18.0,-2.3,5.73,1.95,-3.9,27.5
2015-06-01 01:15:00,0.0,1.90252,0.00045,401.107,0.040,0.6733,0.0019,139.999,45.000,34195.17360,1.91544,404.425,32.979,45.068,45.000,0.00,0.09,-272.72,-272.78,-6,982,-5,23.7,17.4,-2.5,23.4,18.0,-2.3,5.73,1.93,-3.9,27.5
2015-06-01 01:16:00,0.0,1.90203,0.00032,401.120,0.029,0.6746,0.0011,139.997,45.000,34197.51142,1.91493,404.440,32.969,45.068,45.000,0.00,0.10,-272.72,-272.78,-6,983,-5,23.7,17.4,-2.5,23.4,18.0,-2.3,5.73,1.92,-3.9,27.5
2015-06-01 01:17:00,0.0,1.90218,0.00041,401.116,0.026,0.6733,0.0023,139.999,45.000,34198.74398,1.91504,404.433,32.979,45.068,45.000,0.00,0.10,-272.72,-272.79,-6,983,-5,23.7,17.4,-2.5,23.4,18.0,-2.3,5.73,1.91,-3.9,27.6
2015-06-01 01:18:00,0.0,1.90203,0.00038,401.126,0.046,0.6740,0.0019,140.007,45.000,34202.40049,1.91491,404.446,32.990,45.068,45.000,0.00,0.09,-272.72,-272.78,-6,982,-5,23.7,17.4,-2.5,23.4,18.0,-2.3,5.73,1.90,-3.9,27.6
2015-06-01 01:19:00,0.0,1.90233,0.00027,401.137,0.038,0.6747,0.0020,139.997,45.000,34197.84863,1.91520,404.460,32.966,45.068,45.000,0.00,0.10,-272.72,-272.78,-6,983,-5,23.7,17.5,-2.4,23.4,18.0,-2.3,5.73,1.90,-3.9,27.6
2015-06-01 01:20:00,0.0,1.90241,0.00024,401.140,0.032,0.6787,0.0021,139.999,45.000,34195.87452,1.91539,404.485,32.950,45.068,45.000,0.00,0.10,-272.72,-272.79,-6,983,-5,23.7,17.6,-2.3,23.4,18.1,-2.2,5.73,1.92,-3.9,27.6
2015-06-01 01:21:00,0.0,1.90211,0.00027,401.091,0.027,0.6844,0.0025,140.001,45.000,34197.14086,1.91523,404.462,32.980,45.068,45.000,0.00,0.10,-272.72,-272.78,-7,983,-5,23.7,17.7,-2.2,23.4,18.2,-2.1,5.73,1.93,-3.9,27.6
2015-06-01 01:22:00,0.0,1.90189,0.00026,401.088,0.036,0.6812,0.0027,140.000,45.000,34198.63319,1.91490,404.445,32.982,45.068,45.000,0.00,0.10,-272.71,-272.77,-6,983,-5,23.7,17.6,-2.3,23.4,18.2,-2.1,5.73,1.95,-3.9,27.6
2015-06-01 01:23:00,0.0,1.90191,0.00050,401.067,0.039,0.6833,0.0029,140.000,45.000,34200.18190,1.91498,404.434,32.985,45.068,45.000,0.00,0.09,-272.72,-272.78,-6,983,-5,23.7,17.7,-2.3,23.4,18.2,-2.1,5.73,1.96,-3.9,27.6
2015-06-01 01:24:00,0.0,1.90191,0.00037,401.040,0.013,0.6884,0.0025,139.999,45.000,34200.02089,1.91504,404.430,32.997,45.068,45.000,0.00,0.09,-272.73,-272.78,-7,983,-5,23.7,17.8,-2.2,23.4,18.3,-2.0,5.73,1.96,-3.9,27.6
2015-06-01 01:25:00,0.0,1.90191,0.00035,401.015,0.046,0.6949,0.0030,140.000,45.000,34198.19750,1.91523,404.438,33.000,45.068,45.000,0.00,0.10,-272.72,-272.78,-6,982,-5,23.7,18.0,-2.0,23.4,18.5,-1.9,5.73,1.96,-3.9,27.5
2015-06-01 01:26:00,0.0,1.90212,0.00038,401.017,0.027,0.6978,0.0041,139.998,45.000,34194.25613,1.91547,404.456,33.003,45.068,45.000,0.00,0.10,-272.72,-272.77,-6,983,-5,23.7,18.1,-1.9,23.4,18.6,-1.8,5.73,1.94,-3.9,27.6
2015-06-01 01:27:00,0.0,1.90202,0.00033,400.995,0.041,0.7073,0.0031,140.002,45.000,34194.31691,1.91556,404.482,33.011,45.068,45.000,0.00,0.09,-272.72,-272.78,-6,983,-5,23.7,18.3,-1.8,23.4,18.8,-1.6,5.73,1.93,-3.9,27.6
2015-06-01 01:28:00,0.0,1.90238,0.00036,401.004,0.047,0.7043,0.0040,140.001,45.000,34191.16581,1.91584,404.476,33.018,45.068,45.000,0.00,0.09,-272.72,-272.78,-6,982,-5,23.7,18.2,-1.8,23.4,18.8,-1.7,5.73,1.91,-3.9,27.6
2015-06-01 01:29:00,0.0,1.90227,0.00024,401.031,0.038,0.6971,0.0022,140.000,45.000,34192.49776,1.91560,404.467,33.026,45.068,45.000,0.00,0.09,-272.71,-272.78,-6,983,-5,23.7,18.0,-2.0,23.4,18.6,-1.8,5.73,1.90,-3.8,27.6
2015-06-01 01:30:00,0.0,1.90237,0.00031,401.063,0.033,0.6924,0.0039,139.997,45.000,34191.75609,1.91564,404.476,33.023,45.068,45.000,0.00,0.09,-272.72,-272.78,-6,983,-5,23.7,17.9,-2.1,23.5,18.5,-1.9,5.73,1.90,-3.8,27.6
2015-06-01 01:31:00,0.0,1.90249,0.00042,401.098,0.028,0.6878,0.0017,139.998,45.000,34196.40527,1.91562,404.488,33.052,45.068,45.000,0.00,0.10,-272.72,-272.78,-6,982,-5,23.8,17.8,-2.2,23.5,18.3,-2.0,5.73,1.91,-3.8,27.5
2015-06-01 01:32:00,0.0,1.90249,0.00040,401.079,0.033,0.6885,0.0016,139.998,45.000,34194.87977,1.91567,404.474,33.056,45.068,45.000,0.00,0.10,-272.72,-272.78,-6,983,-5,23.8,17.8,-2.1,23.5,18.3,-2.0,5.73,1.92,-3.8,27.6
2015-06-01 01:33:00,0.0,1.90224,0.00040,401.073,0.048,0.6904,0.0027,139.999,45.000,34195.45537,1.91541,404.474,33.063,45.068,45.000,0.00,0.10,-272.72,-272.78,-6,983,-5,23.8,17.8,-2.1,23.5,18.4,-2.0,5.73,1.94,-3.8,27.6
2015-06-01 01:34:00,0.0,1.90267,0.00033,401.101,0.047,0.6874,0.0059,139.994,45.000,34194.57079,1.91581,404.490,33.064,45.068,45.000,0.00,0.10,-272.73,-272.79,-7,983,-5,23.8,17.7,-2.2,23.5,18.3,-2.0,5.73,1.95,-3.9,27.6
2015-06-01 01:35:00,0.0,1.90260,0.00032,401.118,0.042,0.6812,0.0037,139.998,45.000,34195.57266,1.91564,404.476,33.062,45.068,45.000,0.00,0.10,-272.72,-272.78,-6,983,-5,23.8,17.6,-2.3,23.5,18.1,-2.1,5.73,1.95,-3.8,27.6
2015-06-01 01:36:00,0.0,1.90299,0.00029,401.140,0.035,0.6793,0.0068,139.996,45.000,34196.24409,1.91596,404.487,33.063,45.068,45.000,0.00,0.10,-272.72,-272.78,-6,983,-5,23.8,17.5,-2.4,23.4,18.1,-2.2,5.73,1.96,-3.8,27.6
2015-06-01 01:37:00,0.0,1.90313,0.00036,401.165,0.029,0.6779,0.0021,140.001,45.000,34197.48588,1.91612,404.505,33.064,45.068,45.000,0.00,0.09,-272.72,-272.78,-7,983,-5,23.8,17.4,-2.4,23.5,18.0,-2.2,5.73,1.95,-3.8,27.6
2015-06-01 01:38:00,0.0,1.90277,0.00025,401.139,0.042,0.6803,0.0023,139.999,45.000,34198.39644,1.91581,404.490,33.064,45.068,45.000,0.00,0.10,-272.72,-272.78,-6,983,-5,23.8,17.5,-2.3,23.5,18.1,-2.2,5.73,1.93,-3.8,27.6
2015-06-01 01:39:00,0.0,1.90265,0.00037,401.125,0.044,0.6848,0.0033,139.996,45.000,34193.72160,1.91572,404.498,33.063,45.068,45.000,0.00,0.10,-272.72,-272.77,-6,983,-5,23.8,17.6,-2.2,23.5,18.2,-2.0,5.73,1.92,-3.8,27.6
2015-06-01 01:40:00,0.0,1.90312,0.00042,401.211,0.028,0.6704,0.0027,140.000,45.000,34195.74411,1.91593,404.517,33.063,45.068,45.000,0.00,0.09,-272.72,-272.78,-7,984,-5,23.8,17.2,-2.6,23.5,17.9,-2.3,5.73,1.91,-3.8,27.6
2015-06-01 01:41:00,0.0,1.90304,0.00041,401.195,0.032,0.6731,0.0012,139.997,45.000,34196.72844,1.91590,404.509,33.066,45.068,45.000,0.00,0.09,-272.72,-272.78,-6,983,-5,23.8,17.3,-2.4,23.5,17.8,-2.3,5.73,1.90,-3.8,27.7
2015-06-01 01:42:00,0.0,1.90298,0.00036,401.152,0.028,0.6708,0.0023,140.001,45.000,34200.88268,1.91584,404.457,33.071,45.068,45.000,0.00,0.10,-272.71,-272.78,-6,983,-5,23.8,17.2,-2.6,23.5,17.8,-2.3,5.73,1.91,-3.8,27.7
2015-06-01 01:43:00,0.0,1.90338,0.00031,401.174,0.024,0.6708,0.0020,139.996,45.000,34196.87209,1.91616,404.478,33.094,45.068,45.000,0.00,0.10,-272.72,-272.78,-7,984,-5,23.8,17.2,-2.6,23.5,17.8,-2.4,5.73,1.92,-3.8,27.7
2015-06-01 01:44:00,0.0,1.90299,0.00042,401.162,0.040,0.6739,0.0039,139.999,45.000,34199.71382,1.91590,404.482,33.121,45.068,45.000,0.00,0.09,-272.72,-272.79,-6,983,-5,23.8,17.3,-2.5,23.5,17.8,-2.3,5.73,1.94,-3.8,27.7
2015-06-01 01:45:00,0.0,1.90283,0.00022,401.088,0.064,0.6915,0.0062,140.006,45.000,34201.47554,1.91604,404.496,33.124,45.068,45.000,0.00,0.09,-272.72,-272.78,-7,983,-5,23.8,17.8,-2.1,23.5,18.2,-2.0,5.73,1.95,-3.8,27.6
2015-06-01 01:46:00,0.0,1.90261,0.00026,401.002,0.024,0.7031,0.0025,139.997,45.000,34197.49166,1.91604,404.465,33.122,45.067,45.000,0.00,0.10,-272.72,-272.77,-6,984,-5,23.8,18.1,-1.9,23.5,18.6,-1.7,5.73,1.96,-3.8,27.6